Athens, GA

7:17 AM EDT on April 26, 2017 (GMT -0400)
Athens / Epps

Weather History for KAHN - May, 2013

Change the Weather History Date:

Saturday, May 4, 2013

  Actual Average Record
Temperature  
Mean Temperature 54 °F 67 °F  
Max Temperature 58 °F 79 °F 92 °F (1955)
Min Temperature 50 °F 55 °F 37 °F (1971)
Degree Days  
Heating Degree Days 11    
Cooling Degree Days 0 3  
Month to date cooling degree days 0 12  
Year to date cooling degree days 42 70  
Growing Degree Days 4 (Base 50)    
Moisture  
Dew Point 52 °F    
Average Humidity 92    
Maximum Humidity 100    
Minimum Humidity 83    
Precipitation  
Precipitation 1.33 in 0.10 in 2.36 in (1857)
Month to date precipitation 1.38 0.41  
Year to date precipitation 20.83 16.52  
Sea Level Pressure  
Sea Level Pressure 29.93 in    
Wind  
Wind Speed 13 mph (ENE)    
Max Wind Speed 22 mph    
Max Gust Speed 30 mph    
Visibility 4 miles    
Events Fog , Rain    
T = Trace of Precipitation, MM = Missing Value Source: NWS Daily Summary

Daily Weather History Graph

Daily Weather History Graph

Search for Another Location

Airport or City:

Trip Planner

Search our weather history database for the weather conditions in past years. The results will help you decide how hot, cold, wet, or windy it might be!

Date:

Astronomy

May. 04, 2013 Rise Set
Actual Time 6:41 AM EDT 8:19 PM EDT
Civil Twilight 6:14 AM EDT 8:46 PM EDT
Nautical Twilight 5:41 AM EDT 9:18 PM EDT
Astronomical Twilight 5:07 AM EDT 9:53 PM EDT
Moon 3:24 AM EDT (5/4) 3:29 PM EDT (5/4)
Length of Visible Light 14h 32m
Length of Day
13h 38m
Waning Crescent, 27% of the Moon is Illuminated
May 4
Waning Crescent
May 9
New
May 18
First Quarter
May 25
Full
May 31
Last Quarter

Hourly Weather History & Observations

Time (EDT) Temp. Dew Point Humidity Pressure Visibility Wind Dir Wind Speed Gust Speed Precip Events Conditions
12:51 AM 57.9 °F 55.0 °F 90% 30.01 in 9.0 mi East 8.1 mph - N/A   Overcast
1:51 AM 57.9 °F 54.0 °F 87% 29.99 in 9.0 mi East 12.7 mph - N/A   Overcast
2:13 AM 57.2 °F 53.6 °F 88% 29.99 in 9.0 mi East 11.5 mph - 0.00 in Rain Light Rain
2:20 AM 57.2 °F 53.6 °F 88% 29.99 in 10.0 mi East 11.5 mph - 0.00 in   Overcast
2:51 AM 57.9 °F 53.1 °F 84% 29.97 in 10.0 mi East 13.8 mph - 0.00 in Rain Light Rain
3:51 AM 57.0 °F 50.0 °F 77% 29.96 in 9.0 mi East 19.6 mph 26.5 mph 0.00 in Rain Light Rain
4:51 AM 54.0 °F 48.9 °F 83% 29.96 in 8.0 mi East 11.5 mph - 0.03 in Rain Light Rain
5:51 AM 52.0 °F 48.0 °F 86% 29.97 in 9.0 mi ENE 12.7 mph 19.6 mph 0.00 in Rain Light Rain
6:51 AM 51.1 °F 46.9 °F 86% 29.97 in 7.0 mi ENE 13.8 mph - 0.01 in Rain Light Rain
7:51 AM 51.1 °F 46.9 °F 86% 29.98 in 7.0 mi ENE 12.7 mph 19.6 mph 0.01 in   Overcast
8:18 AM 51.8 °F 46.4 °F 82% 29.97 in 6.0 mi East 17.3 mph 24.2 mph N/A   Overcast
8:46 AM 51.8 °F 48.2 °F 88% 29.98 in 2.5 mi East 16.1 mph 24.2 mph 0.00 in Rain Light Rain
8:51 AM 50.0 °F 48.0 °F 93% 29.98 in 2.5 mi ENE 12.7 mph 24.2 mph 0.00 in Rain Light Rain
9:03 AM 50.0 °F 48.2 °F 94% 29.98 in 2.5 mi ENE 15.0 mph 24.2 mph 0.00 in Rain Light Rain
9:51 AM 50.0 °F 48.9 °F 96% 29.98 in 2.5 mi East 15.0 mph 25.3 mph 0.01 in Rain Light Rain
10:06 AM 51.8 °F 48.2 °F 88% 29.98 in 1.5 mi East 16.1 mph 23.0 mph 0.00 in Rain Light Rain
10:20 AM 51.8 °F 48.2 °F 88% 29.97 in 2.5 mi East 16.1 mph - 0.02 in Rain Light Rain
10:29 AM 51.8 °F 48.2 °F 88% 29.97 in 3.0 mi East 15.0 mph 26.5 mph 0.02 in Rain Light Rain
10:51 AM 51.1 °F 50.0 °F 96% 29.98 in 3.0 mi East 10.4 mph 21.9 mph 0.03 in Rain Light Rain
11:39 AM 51.8 °F 50.0 °F 94% 29.98 in 2.5 mi East 12.7 mph - 0.04 in Rain Light Rain
11:51 AM 52.0 °F 50.0 °F 93% 29.96 in 2.0 mi East 13.8 mph 20.7 mph 0.06 in Rain Light Rain
12:10 PM 51.8 °F 50.0 °F 94% 29.96 in 2.0 mi East 12.7 mph 20.7 mph 0.03 in Rain Rain
12:24 PM 51.8 °F 51.8 °F 100% 29.96 in 2.5 mi East 12.7 mph 20.7 mph 0.05 in Rain Light Rain
12:32 PM 51.8 °F 51.8 °F 100% 29.96 in 3.0 mi East 15.0 mph - 0.06 in Rain Light Rain
12:42 PM 51.8 °F 51.8 °F 100% 29.96 in 1.8 mi East 13.8 mph 18.4 mph 0.07 in Rain Rain
12:51 PM 52.0 °F 51.1 °F 97% 29.96 in 1.5 mi ENE 13.8 mph 19.6 mph 0.12 in Rain Rain
12:57 PM 53.6 °F 51.8 °F 94% 29.95 in 2.0 mi ENE 15.0 mph 21.9 mph 0.01 in Rain Rain
1:04 PM 53.6 °F 51.8 °F 94% 29.95 in 3.0 mi East 15.0 mph 21.9 mph 0.02 in Rain Light Rain
1:20 PM 53.6 °F 51.8 °F 94% 29.94 in 2.5 mi ENE 10.4 mph 19.6 mph 0.05 in Rain Light Rain
1:31 PM 53.6 °F 51.8 °F 94% 29.94 in 3.0 mi East 12.7 mph 19.6 mph 0.06 in Rain Light Rain
1:51 PM 53.1 °F 52.0 °F 96% 29.94 in 4.0 mi East 13.8 mph 20.7 mph 0.07 in Rain Light Rain
2:11 PM 53.6 °F 51.8 °F 94% 29.93 in 2.5 mi East 17.3 mph 24.2 mph 0.02 in Rain Light Rain
2:22 PM 53.6 °F 51.8 °F 94% 29.93 in 3.0 mi East 13.8 mph 23.0 mph 0.03 in Rain Light Rain
2:36 PM 53.6 °F 51.8 °F 94% 29.94 in 3.0 mi East 13.8 mph 20.7 mph 0.04 in Rain Light Rain
2:43 PM 53.6 °F 51.8 °F 94% 29.93 in 2.5 mi East 13.8 mph 24.2 mph 0.05 in Rain Light Rain
2:51 PM 54.0 °F 52.0 °F 93% 29.93 in 2.5 mi East 17.3 mph 24.2 mph 0.06 in Rain Light Rain
3:01 PM 53.6 °F 51.8 °F 94% 29.92 in 4.0 mi East 19.6 mph 23.0 mph 0.01 in Rain Light Rain
3:51 PM 54.0 °F 53.1 °F 97% 29.90 in 2.5 mi East 16.1 mph 24.2 mph 0.03 in Rain Light Rain
4:00 PM 53.6 °F 53.6 °F 100% 29.90 in 4.0 mi East 15.0 mph 25.3 mph 0.00 in Rain Light Rain
4:51 PM 54.0 °F 53.1 °F 97% 29.87 in 2.0 mi East 16.1 mph 25.3 mph 0.04 in Rain Rain
5:12 PM 53.6 °F 53.6 °F 100% 29.85 in 5.0 mi East 17.3 mph 25.3 mph 0.02 in Rain Light Rain
5:39 PM 53.6 °F 53.6 °F 100% 29.88 in 1.8 mi East 12.7 mph 16.1 mph 0.03 in Rain Rain
5:48 PM 53.6 °F 53.6 °F 100% 29.86 in 0.8 mi ENE 12.7 mph - 0.14 in Rain Heavy Rain
5:51 PM 54.0 °F 53.1 °F 97% 29.87 in 1.0 mi East 11.5 mph - 0.16 in Rain Heavy Rain
5:58 PM 53.6 °F 53.6 °F 100% 29.86 in 1.8 mi East 12.7 mph - 0.02 in Rain Light Rain
6:05 PM 53.6 °F 53.6 °F 100% 29.89 in 2.5 mi ENE 8.1 mph - 0.03 in Rain Light Rain
6:10 PM 55.4 °F 53.6 °F 94% 29.88 in 1.8 mi ENE 9.2 mph - 0.04 in Rain Rain
6:19 PM 55.4 °F 53.6 °F 94% 29.87 in 1.2 mi ENE 9.2 mph - 0.10 in Rain Rain
6:28 PM 55.4 °F 53.6 °F 94% 29.90 in 1.5 mi Variable 3.5 mph - 0.14 in Rain Rain
6:36 PM 55.4 °F 53.6 °F 94% 29.91 in 0.8 mi WNW 3.5 mph - 0.16 in Rain Rain
6:43 PM 55.4 °F 53.6 °F 94% 29.91 in 0.2 mi Variable 4.6 mph - 0.29 in Fog , Rain Heavy Rain
6:51 PM 55.0 °F 54.0 °F 96% 29.89 in 0.8 mi ENE 8.1 mph - 0.40 in Rain Heavy Rain
6:56 PM 55.4 °F 53.6 °F 94% 29.89 in 1.0 mi NE 8.1 mph - 0.05 in Rain Heavy Rain
7:02 PM 55.4 °F 53.6 °F 94% 29.91 in 2.0 mi Calm Calm - 0.07 in Rain Light Rain
7:17 PM 55.4 °F 53.6 °F 94% 29.90 in 1.2 mi ENE 5.8 mph - 0.11 in Rain Heavy Rain
7:23 PM 55.4 °F 53.6 °F 94% 29.89 in 1.8 mi ENE 8.1 mph - 0.13 in Rain Light Rain
7:28 PM 55.4 °F 53.6 °F 94% 29.89 in 3.0 mi ENE 8.1 mph - 0.14 in Rain Light Rain
7:44 PM 55.4 °F 53.6 °F 94% 29.90 in 4.0 mi ENE 9.2 mph - 0.14 in Rain Light Rain
7:51 PM 55.0 °F 54.0 °F 96% 29.90 in 2.0 mi ENE 9.2 mph - 0.15 in Rain Light Rain
8:08 PM 55.4 °F 53.6 °F 94% 29.90 in 4.0 mi ENE 10.4 mph 17.3 mph 0.01 in Rain Light Rain
8:17 PM 55.4 °F 53.6 °F 94% 29.89 in 4.0 mi ENE 12.7 mph - 0.02 in Rain Light Rain
8:39 PM 55.4 °F 53.6 °F 94% 29.88 in 6.0 mi ENE 11.5 mph - 0.03 in Rain Light Rain
8:51 PM 55.0 °F 54.0 °F 96% 29.89 in 6.0 mi ENE 12.7 mph - 0.03 in Rain Light Rain
9:51 PM 55.0 °F 54.0 °F 96% 29.88 in 10.0 mi East 16.1 mph 23.0 mph 0.00 in   Overcast
10:51 PM 55.9 °F 54.0 °F 93% 29.90 in 8.0 mi East 11.5 mph 23.0 mph 0.04 in Rain Light Rain
11:51 PM 55.9 °F 54.0 °F 93% 29.87 in 3.0 mi East 12.7 mph 18.4 mph 0.04 in Rain Light Rain